This is the latest recevied weather packets stored in our database for station/object DB0NLS-15. If no packets are shown the sender has not sent any weather packets the latest 10 day(s).
| Time | Temp. | Humidity | Pressure | Rain* | Wind** | Luminosity | Snow |
|---|---|---|---|---|---|---|---|
| 1777448170 | 8.33° C | 40% | 1017.6 hPa | 0 mm | - | - | - |
| 1777447567 | 8.33° C | 41% | 1017.5 hPa | 0 mm | - | - | - |
| 1777446965 | 8.33° C | 44% | 1017.5 hPa | 0 mm | - | - | - |
| 1777446362 | 7.78° C | 46% | 1017.4 hPa | 0 mm | - | - | - |
| 1777445759 | 7.78° C | 46% | 1017.2 hPa | 0 mm | - | - | - |
| 1777445157 | 7.22° C | 45% | 1017.3 hPa | 0 mm | - | - | - |
| 1777444554 | 6.67° C | 47% | 1017 hPa | 0 mm | - | - | - |
| 1777443951 | 6.67° C | 51% | 1016.9 hPa | 0 mm | - | - | - |
| 1777443348 | 6.67° C | 57% | 1017 hPa | 0 mm | - | - | - |
| 1777442746 | 5.56° C | 60% | 1016.7 hPa | 0 mm | - | - | - |
| 1777442143 | 5.56° C | 60% | 1016.7 hPa | 0 mm | - | - | - |
| 1777441539 | 5° C | 61% | 1016.7 hPa | 0 mm | - | - | - |
| 1777440937 | 5° C | 62% | 1016.5 hPa | 0 mm | - | - | - |
| 1777440334 | 4.44° C | 63% | 1016.3 hPa | 0 mm | - | - | - |
| 1777439731 | 3.89° C | 64% | 1016.2 hPa | 0 mm | - | - | - |
| 1777439129 | 3.89° C | 65% | 1016.1 hPa | 0 mm | - | - | - |
| 1777438526 | 3.89° C | 64% | 1016 hPa | 0 mm | - | - | - |
| 1777437924 | 3.89° C | 65% | 1015.9 hPa | 0 mm | - | - | - |
| 1777437321 | 2.22° C | 67% | 1015.9 hPa | 0 mm | - | - | - |
| 1777436718 | 1.67° C | 69% | 1015.8 hPa | 0 mm | - | - | - |
| 1777436116 | 1.67° C | 69% | 1015.7 hPa | 0 mm | - | - | - |
| 1777435573 | 2.22° C | 68% | 1015.8 hPa | 0 mm | - | - | - |
| 1777434971 | 1.11° C | 70% | 1015.7 hPa | 0 mm | - | - | - |
| 1777434368 | 0.56° C | 72% | 1015.6 hPa | 0 mm | - | - | - |
| 1777433765 | 1.11° C | 70% | 1015.5 hPa | 0 mm | - | - | - |
* Rain latest hour (hover to see other rain measurements)
** Current wind speed in m/s (hover to see current wind gust speed)